• In Uzbekistan
  • List of Countries
  • For 7 days
  • Water Temperature
  • Satellite Maps
  • Weather Map
  • Weather Widgets
  • user-avatar
    Login

    Hourly Weather Hurghada

    Today, 21 January, Sunday

    Time Temperature Precipitation Wind Pressure Humidity
    00:00 +8°C° 0 mm 1 mps 685 mmHg 57%
    01:00 +7°C° 0 mm 1 mps 685 mmHg 58%
    02:00 +7°C° 0 mm 1 mps 684 mmHg 61%
    03:00 +7°C° 0 mm 1 mps 684 mmHg 61%
    04:00 +6°C° 0 mm 1 mps 684 mmHg 61%
    05:00 +6°C° 0 mm 1 mps 684 mmHg 61%
    06:00 +8°C° 0 mm 1 mps 684 mmHg 55%
    07:00 +9°C° 0 mm 1 mps 685 mmHg 49%
    08:00 +12°C° 0 mm 1 mps 685 mmHg 40%
    09:00 +14°C° 0 mm 1 mps 685 mmHg 36%
    10:00 +15°C° 0 mm 1 mps 685 mmHg 33%
    11:00 +17°C° 0 mm 2 mps 686 mmHg 29%
    12:00 +18°C° 0 mm 2 mps 685 mmHg 27%
    13:00 +19°C° 0 mm 2 mps 685 mmHg 26%
    14:00 +20°C° 0 mm 3 mps 685 mmHg 25%
    15:00 +19°C° 0 mm 3 mps 684 mmHg 28%
    16:00 +18°C° 0 mm 3 mps 684 mmHg 31%
    17:00 +17°C° 0 mm 3 mps 684 mmHg 35%
    18:00 +15°C° 0 mm 2 mps 684 mmHg 39%
    19:00 +14°C° 0 mm 2 mps 683 mmHg 43%
    20:00 +12°C° 0 mm 1 mps 683 mmHg 48%
    21:00 +12°C° 0 mm 1 mps 683 mmHg 47%
    22:00 +11°C° 0 mm 1 mps 683 mmHg 47%
    23:00 +11°C° 0 mm 1 mps 683 mmHg 46%

    Tomorrow, 22 January, Monday

    Time Temperature Precipitation Wind Pressure Humidity
    00:00 +11°C° 0 mm 1 mps 683 mmHg 45%
    01:00 +10°C° 0 mm 1 mps 682 mmHg 43%
    02:00 +10°C° 0 mm 1 mps 682 mmHg 42%
    03:00 +10°C° 0 mm 1 mps 682 mmHg 41%
    04:00 +9°C° 0 mm 1 mps 682 mmHg 40%
    05:00 +9°C° 0 mm 1 mps 682 mmHg 39%
    06:00 +10°C° 0 mm 1 mps 682 mmHg 34%
    07:00 +10°C° 0 mm 2 mps 682 mmHg 29%
    08:00 +13°C° 0 mm 2 mps 683 mmHg 24%
    09:00 +15°C° 0 mm 2 mps 683 mmHg 21%
    10:00 +16°C° 0 mm 3 mps 684 mmHg 18%
    11:00 +18°C° 0 mm 3 mps 684 mmHg 14%
    12:00 +19°C° 0 mm 3 mps 684 mmHg 13%
    13:00 +19°C° 0 mm 4 mps 683 mmHg 13%
    14:00 +20°C° 0 mm 4 mps 683 mmHg 12%
    15:00 +19°C° 0 mm 4 mps 683 mmHg 14%
    16:00 +18°C° 0 mm 3 mps 682 mmHg 16%
    17:00 +17°C° 0 mm 3 mps 682 mmHg 18%
    18:00 +14°C° 0 mm 3 mps 682 mmHg 22%
    19:00 +13°C° 0 mm 3 mps 682 mmHg 27%
    20:00 +12°C° 0 mm 4 mps 683 mmHg 31%
    21:00 +11°C° 0 mm 4 mps 683 mmHg 36%
    22:00 +10°C° 0 mm 4 mps 683 mmHg 40%
    23:00 +10°C° 0 mm 4 mps 683 mmHg 45%

    Day after tomorrow, 23 January, Tuesday

    Time Temperature Precipitation Wind Pressure Humidity
    00:00 +8°C° 0 mm 4 mps 683 mmHg 50%
    01:00 +8°C° 0 mm 4 mps 683 mmHg 55%
    02:00 +7°C° 0 mm 4 mps 683 mmHg 60%
    03:00 +7°C° 0 mm 4 mps 682 mmHg 63%
    04:00 +6°C° 0 mm 4 mps 682 mmHg 65%
    05:00 +6°C° 0 mm 4 mps 682 mmHg 68%
    06:00 +7°C° 0 mm 4 mps 683 mmHg 66%
    07:00 +7°C° 0 mm 4 mps 683 mmHg 65%
    08:00 +8°C° 0 mm 4 mps 684 mmHg 63%
    09:00 +11°C° 0 mm 4 mps 684 mmHg 57%
    10:00 +12°C° 0 mm 4 mps 684 mmHg 51%
    11:00 +13°C° 0 mm 4 mps 685 mmHg 45%
    12:00 +14°C° 0 mm 4 mps 684 mmHg 42%
    13:00 +15°C° 0 mm 4 mps 684 mmHg 39%
    14:00 +16°C° 0 mm 5 mps 684 mmHg 35%
    15:00 +15°C° 0 mm 4 mps 683 mmHg 36%
    16:00 +15°C° 0 mm 4 mps 683 mmHg 37%
    17:00 +14°C° 0 mm 4 mps 683 mmHg 38%
    18:00 +13°C° 0 mm 4 mps 684 mmHg 41%
    19:00 +12°C° 0 mm 4 mps 684 mmHg 45%
    20:00 +10°C° 0 mm 3 mps 684 mmHg 48%
    21:00 +10°C° 0 mm 3 mps 684 mmHg 48%
    22:00 +9°C° 0 mm 3 mps 684 mmHg 49%
    23:00 +8°C° 0 mm 3 mps 684 mmHg 49%

    24 January, Wednesday

    Time Temperature Precipitation Wind Pressure Humidity
    00:00 +8°C° 0 mm 3 mps 683 mmHg 50%
    01:00 +7°C° 0 mm 2 mps 683 mmHg 51%
    02:00 +6°C° 0 mm 2 mps 683 mmHg 52%
    03:00 +6°C° 0 mm 2 mps 683 mmHg 53%
    04:00 +6°C° 0 mm 2 mps 682 mmHg 54%
    05:00 +5°C° 0 mm 2 mps 682 mmHg 55%
    06:00 +6°C° 0 mm 2 mps 683 mmHg 51%
    07:00 +8°C° 0 mm 2 mps 683 mmHg 47%
    08:00 +9°C° 0 mm 2 mps 684 mmHg 43%
    09:00 +10°C° 0 mm 2 mps 684 mmHg 40%
    10:00 +13°C° 0 mm 1 mps 684 mmHg 37%
    11:00 +14°C° 0 mm 1 mps 684 mmHg 34%
    12:00 +15°C° 0 mm 2 mps 684 mmHg 31%
    13:00 +16°C° 0 mm 2 mps 684 mmHg 28%
    14:00 +17°C° 0 mm 2 mps 683 mmHg 26%
    15:00 +16°C° 0 mm 2 mps 683 mmHg 28%
    16:00 +16°C° 0 mm 3 mps 683 mmHg 30%
    17:00 +14°C° 0 mm 3 mps 683 mmHg 32%
    18:00 +13°C° 0 mm 3 mps 683 mmHg 37%
    19:00 +13°C° 0 mm 2 mps 683 mmHg 43%
    20:00 +10°C° 0 mm 2 mps 683 mmHg 48%
    21:00 +10°C° 0 mm 2 mps 683 mmHg 49%
    22:00 +9°C° 0 mm 2 mps 683 mmHg 49%
    23:00 +9°C° 0 mm 3 mps 683 mmHg 50%

    25 January, Thursday

    Time Temperature Precipitation Wind Pressure Humidity
    00:00 +8°C° 0 mm 3 mps 682 mmHg 50%
    01:00 +8°C° 0 mm 3 mps 682 mmHg 51%
    02:00 +8°C° 0 mm 3 mps 682 mmHg 51%
    03:00 +7°C° 0 mm 3 mps 682 mmHg 52%
    04:00 +7°C° 0 mm 3 mps 681 mmHg 53%
    05:00 +7°C° 0 mm 3 mps 681 mmHg 54%
    06:00 +7°C° 0 mm 3 mps 682 mmHg 52%
    07:00 +8°C° 0 mm 3 mps 682 mmHg 50%
    08:00 +9°C° 0 mm 3 mps 683 mmHg 47%
    09:00 +11°C° 0 mm 4 mps 683 mmHg 45%
    10:00 +12°C° 0 mm 4 mps 684 mmHg 42%
    11:00 +14°C° 0 mm 5 mps 684 mmHg 40%
    12:00 +14°C° 0 mm 5 mps 684 mmHg 40%
    13:00 +14°C° 0 mm 6 mps 683 mmHg 40%
    14:00 +14°C° 0 mm 7 mps 683 mmHg 41%
    15:00 +13°C° 0 mm 6 mps 683 mmHg 41%
    16:00 +11°C° 0 mm 6 mps 683 mmHg 42%
    17:00 +10°C° 0 mm 6 mps 683 mmHg 43%
    18:00 +9°C° 0 mm 6 mps 683 mmHg 45%
    19:00 +8°C° 0 mm 5 mps 684 mmHg 48%
    20:00 +7°C° 0 mm 5 mps 684 mmHg 51%
    21:00 +6°C° 0 mm 5 mps 684 mmHg 52%
    22:00 +5°C° 0 mm 5 mps 684 mmHg 53%
    23:00 +5°C° 0 mm 5 mps 684 mmHg 54%

    26 January, Friday

    Time Temperature Precipitation Wind Pressure Humidity
    00:00 +3°C° 0 mm 5 mps 684 mmHg 55%
    01:00 +4°C° 0 mm 4 mps 683 mmHg 56%
    02:00 +3°C° 0 mm 4 mps 683 mmHg 57%
    03:00 +3°C° 0 mm 4 mps 683 mmHg 58%
    04:00 +3°C° 0 mm 4 mps 683 mmHg 60%
    05:00 +1°C° 0 mm 4 mps 683 mmHg 62%
    06:00 +3°C° 0 mm 4 mps 684 mmHg 63%
    07:00 +3°C° 0 mm 4 mps 684 mmHg 64%
    08:00 +4°C° 0 mm 4 mps 685 mmHg 65%
    09:00 +6°C° 0 mm 5 mps 685 mmHg 58%
    10:00 +8°C° 0 mm 5 mps 686 mmHg 52%
    11:00 +9°C° 0 mm 5 mps 686 mmHg 45%
    12:00 +10°C° 0 mm 5 mps 686 mmHg 42%
    13:00 +11°C° 0 mm 6 mps 686 mmHg 38%
    14:00 +13°C° 0 mm 6 mps 685 mmHg 34%
    15:00 +11°C° 0 mm 6 mps 685 mmHg 37%
    16:00 +10°C° 0 mm 6 mps 685 mmHg 40%
    17:00 +9°C° 0 mm 6 mps 685 mmHg 42%
    18:00 +8°C° 0 mm 5 mps 686 mmHg 46%
    19:00 +7°C° 0 mm 5 mps 686 mmHg 49%
    20:00 +6°C° 0 mm 4 mps 686 mmHg 53%
    21:00 +5°C° 0 mm 4 mps 686 mmHg 54%
    22:00 +5°C° 0 mm 4 mps 686 mmHg 56%
    23:00 +4°C° 0 mm 3 mps 686 mmHg 58%
    Show more